Regional Weather Roundup
Issued by NWS Jackson, KY

Home | Current Version | Previous Version | Graphics & Text | Print | Product List | Glossary On
Versions: 1 2 3 4 5 6 7 8 9 10 11 12 13 14 15 16 17 18 19 20 21 22 23 24 25 26 27
000
ASUS43 KJKL 292210
RWRJKL

EAST KENTUCKY HOURLY WEATHER ROUNDUP
NATIONAL WEATHER SERVICE JACKSON KY
600 PM EDT FRI APR 29 2016

NOTE: "FAIR" INDICATES FEW OR NO CLOUDS BELOW 12,000 FEET WITH
NO SIGNIFICANT WEATHER AND/OR OBSTRUCTIONS TO VISIBILITY.

* THESE REPORTS ARE NOT UNDER NWS QUALITY CONTROL AND MAY NOT
  REPORT WEATHER SUCH AS PRECIPITATION AND FOG.

KYZ079-080-083-085-087-088-110-112-115-119-120-292300
...EASTERN KENTUCKY...

CITY           SKY/WX    TMP DP  RH WIND       PRES   REMARKS
JACKSON        MOSUNNY   74  50  42 MISG      30.00R
LONDON         CLOUDY    76  49  38 NW8       30.00S
SOMERSET*      PTSUNNY   72  50  46 W3        30.02S
MONTICELLO*    CLOUDY    74  55  51 W7        30.03R
WILLIAMSBURG*  CLOUDY    75  48  38 NW3       30.01R
MIDDLESBORO*   CLOUDY    78  50  37 NW5       30.00S
HARLAN APT*      N/A     77  41  27 SW6       30.01R
HAZARD APT*    CLEAR     75  43  31 W9        29.99R
BLACK MTN*       N/A     66  46  48 N5          N/A
PIKE CO APT*     N/A     75  51  42 SW5       29.99S
BIG SANDY APT* MOCLDY    76  49  39 W6        29.98S
MOREHEAD APT*  PTCLDY    68  50  52 VRB5      30.02S
$$

KYZ035-036-041-042-044-050-067-078-099-292300
...CENTRAL KENTUCKY...

CITY           SKY/WX    TMP DP  RH WIND       PRES   REMARKS
MT STERLING*   PTSUNNY   68  52  56 NW5       30.03R
FLEMING/MASON* CLOUDY    67  51  56 NW7       30.02R
DANVILLE*      CLOUDY    70  52  52 NW7       30.04R
RICHMOND*      CLOUDY    70  52  52 W5        30.01R
LEXINGTON      PTSUNNY   68  50  52 W7        30.03R
FRANKFORT      PTSUNNY   68  48  48 W6        30.02R
LOUISVILLE     CLOUDY    70  49  47 W6        30.01S
LEBANON*         N/A     70  55  60 CALM      30.03R
BOWLING GREEN  CLOUDY    72  57  59 NE6       30.00F
$$

KYZ091>093-OHZ055-061-077-WVZ005-015-034-035-042-292300
...SOUTHERN OHIO/WEST VIRGINIA...

CITY           SKY/WX    TMP DP  RH WIND       PRES   REMARKS
COVINGTON      CLOUDY    66  47  50 NW6       30.02S
COLUMBUS       CLOUDY    56  47  71 N10       30.04S
DAYTON         CLOUDY    58  48  69 N9        30.06R
WILMINGTON     CLOUDY    61  49  64 N8        30.02S
HUNTINGTON       N/A     73  49  42 NW7       29.97R
CHARLESTON       N/A     74  48  39 NW15G22   29.95F
PINEVILLE*       N/A     77  39  25 MISG      30.02F
BECKLEY          N/A     71  45  39 W16G22    30.00S
$$

VAZ002-007-008-TNZ017-027-036-066-071-292300
...SOUTHWEST VIRGINIA/EAST TENNESSEE...

CITY           SKY/WX    TMP DP  RH WIND       PRES   REMARKS
WISE*            N/A     72  37  28 W6        30.05S
BRISTOL        CLOUDY    77  52  41 SW9       29.99S
MORRISTOWN*    CLEAR     77  50  38 CALM      29.99S
KNOXVILLE      CLOUDY    81  48  31 CALM      29.97S
OAK RIDGE      CLOUDY    81  51  35 CALM      29.99R
CROSSVILLE     PTSUNNY   75  44  33 NW8       30.04R
NASHVILLE      CLOUDY    74  55  51 W7        30.02R
$$

...KEY TO REMARKS...
VSB - VISIBILITY IN MILES
WCI - WIND CHILL INDEX
HX  - HEAT INDEX

$$




USA.gov is the U.S. government's official web portal to all federal, state and local government web resources and services.